Regional Weather Roundup
Issued by NWS

Home | Current Version | Previous Version | Text Only | Print | Product List | Glossary On
Versions: 1 2 3 4 5 6 7 8 9 10 11 12 13 14 15 16 17 18 19 20 21 22 23 24 25 26 27 28 29 30 31 32 33 34 35 36 37 38 39 40 41 42 43 44 45 46 47 48 49 50
922
ASUS45 KCYS 130010
RWRWY

WYOMING REGIONAL WEATHER ROUNDUP
NATIONAL WEATHER SERVICE CHEYENNE WY
500 PM MST FRI FEB 12 2016

NOTE:  "FAIR" INDICATES FEW OR NO CLOUDS BELOW 12,000 FEET
WITH NO SIGNIFICANT WEATHER AND/OR OBSTRUCTIONS TO VISIBILITY.

WYZ001-130100-
YELLOWSTONE NATIONAL PARK

CITY           SKY/WX    TMP DP  RH WIND       PRES   REMARKS
LK YELLOWSTONE   N/A     39  13  34 VRB6      30.29R WCI  35
6HR MIN TEMP:  35; 6HR MAX TEMP:  45;

W YELLOWSTONE  NOT AVBL

$$
WYZ002>013-054>058-071-098>099-130100-
NORTHERN WYOMING

CITY           SKY/WX    TMP DP  RH WIND       PRES   REMARKS
JACKSON        CLEAR     37  25  60 CALM      30.25S
CODY           FAIR      52  25  35 SE12      30.11S
GREYBULL       FAIR      52  24  33 S6        30.11F
6HR MIN TEMP:  44; 6HR MAX TEMP:  55;

WORLAND        FAIR      50  28  42 NE5       30.12S
6HR MIN TEMP:  42; 6HR MAX TEMP:  53;

SHERIDAN       FAIR      46  31  55 E7        30.14R
6HR MIN TEMP:  37; 6HR MAX TEMP:  49;

BUFFALO        FAIR      46  30  53 SE12      30.16F
6HR MIN TEMP:  37; 6HR MAX TEMP:  48;

GILLETTE       CLOUDY    43  30  60 SE8       30.18F
6HR MIN TEMP:  31; 6HR MAX TEMP:  43;

HULETT         CLOUDY    32  28  86 N3        30.23F
NEWCASTLE      CLOUDY    32  28  86 SE10      30.26F WCI  24

$$
WYZ014>020-022>026-101>103-130100-
CENTRAL WYOMING

CITY           SKY/WX    TMP DP  RH WIND       PRES   REMARKS
BIG PINEY      FAIR      44  26  49 CALM      30.28F
6HR MIN TEMP:  34; 6HR MAX TEMP:  46;

PINEDALE         N/A     41  28  60 N5        30.29S
DUBOIS         FAIR      48  14  25 W20G28    30.18F
LANDER         FAIR      42  30  62 W5        30.14S
6HR MIN TEMP:  37; 6HR MAX TEMP:  44;

RIVERTON       FAIR      45  28  51 E3        30.15F
6HR MIN TEMP:  38; 6HR MAX TEMP:  47;

CASPER         FAIR      43  27  53 SW13      30.17S
6HR MIN TEMP:  39; 6HR MAX TEMP:  47;

DOUGLAS        FAIR      42  30  62 SE6       30.21S
6HR MIN TEMP:  42; 6HR MAX TEMP:  48;


$$
WYZ021-027>030-104>119-130100-
SOUTHERN WYOMING

CITY           SKY/WX    TMP DP  RH WIND       PRES   REMARKS
EVANSTON       FAIR      44  15  31 SW5       30.31S
6HR MIN TEMP:  37; 6HR MAX TEMP:  45;

KEMMERER       FAIR      41  18  38 NW3       30.31S
FORT BRIDGER   CLEAR     45  19  36 W13       30.33S
ROCK SPRINGS   FAIR      45  21  38 SW13      30.28F
6HR MIN TEMP:  42; 6HR MAX TEMP:  48;

DIXON          FAIR      38  26  60 CALM      30.35S
RAWLINS        CLOUDY    40  24  53 SW16      30.25F WCI  31
6HR MIN TEMP:  40; 6HR MAX TEMP:  44;

SARATOGA       MOCLDY    45  25  45 W3        30.29F
LARAMIE        CLOUDY    42  27  55 E9        30.24S
6HR MIN TEMP:  42; 6HR MAX TEMP:  52;

CHEYENNE       FAIR      45  27  49 SW15      30.24R
6HR MIN TEMP:  45; 6HR MAX TEMP:  52;

TORRINGTON     FAIR      35  30  82 E16       30.24F WCI  25
6HR MIN TEMP:  35; 6HR MAX TEMP:  46;

PINE BLUFFS    FAIR      39  30  70 SE8       30.25S WCI  34

$$




USA.gov is the U.S. government's official web portal to all federal, state and local government web resources and services.